IUS DEB, 43366

Orbit data source: Space-Track

IUS DEB, 43366 is space debris originally from a launch on Fri, 23 Jul 1999 UTC launched from the Air Force Eastern Test Range (AFETR). Debris objects in space refer to the collection of defunct objects orbiting the Earth. Examples of debris include non-operational satellites, rocket bodies, and fragments generated from explosions, collisions, or faulty payload assembly.

Loading next visibility...
Identifier
43366, 1999-040P
Orbit
Active
Country
Flag of USUS
Related business
Manufacturer
Boeing/Kent
Mission
Spacecraft
Bus & Motor
Unknown
Mass
Unknown
Launch date (UTC)
1999-07-23 (27 years ago)
Launch vehicle
Unknown
Launch site
Air Force Eastern Test Range (AFETR)
Object type
Payload
Rocket body
Debris
Shape & HBR
Unknown shape, 0.1 m
Radar Cross Section
Small (<0.1 m²)

Expand to show TLE details & history
Last TLE update: 6 days ago

TLE from 6 days ago
0 IUS DEB
1 43366U 99040P   26260.38758564  .00000913  00000-0  38135-2 0  9991
2 43366  28.1263 160.3823 3831895 180.7668 178.4849  7.03794058274762
Epoch: 2026-09-17T09:18Z
TLE epoch observation values (Epoch: 2026-09-17T09:18:07.399Z)
Latitude
0.00001°
Longitude
24.52595°
Altitude
9,528.436 km
Speed
3.933 km/s
True Right ascension
10h 41m 31s
True Declination
0° 00' 00"
Sunlit
Object was in daylight at epoch
Visualization orbit readout
Latitude
Unknown
Longitude
Unknown
Altitude
Unknown
Speed
Unknown
Apparent Right ascension
Unknown
Apparent Declination
Unknown
Sunlit
N/A
Visualization observer readout
Local Sidereal Time
16:01:14
Azimuth
Unknown
Elevation
Unknown
Doppler factor
Unknown
Orbital elements
Apogee altitude
9,535.729 km
Perigee altitude
718.389 km
Semi-major axis
11,505.196 km
Eccentricity
0.38319
Inclination
28.1263°
RAAN
160.3823°
Arg. of periapsis
180.7668°
True anomaly
179.26851°
Mean anomaly
178.4849°
Eccentric anomaly
178.90461°
Mean motion
1.75874 °/min
Orbital period
204.69 mins
BSTAR
0.0038135
Loading maneuver chart data...
Computing Atmospheric mass density...
Loading historical data...
Loading historical data...
Loading historical data...
Loading historical data...
Loading historical data...
Loading historical data...
Loading historical data...

Documentation

Showing up to 5 results
|